Regional Weather Roundup
Issued by NWS Upton, NY

Home | Current Version | Previous Version | Text Only | Print | Product List | Glossary On
Versions: 1 2 3 4 5 6 7 8 9 10 11 12 13 14 15 16 17 18 19 20 21 22 23 24 25 26 27 28 29 30 31 32 33 34 35 36 37 38 39 40 41 42 43 44 45 46 47 48 49 50
000
ASUS41 KOKX 011405
RWROKX

REGIONAL WEATHER ROUNDUP
NATIONAL WEATHER SERVICE NEW YORK NY
1000 AM EDT MON SEP 01 2014

NOTE: "FAIR" INDICATES FEW OR NO CLOUDS BELOW 12,000 FEET WITH NO
SIGNIFICANT WEATHER AND/OR OBSTRUCTIONS TO VISIBILITY.

NYZ071-072-176-178-NJZ106-104-011500-
NEW YORK CITY METRO AREA


CITY           SKY/WX    TMP DP  RH WIND       PRES   REMARKS
CENTRAL PARK   MOSUNNY   79  70  74 CALM      30.03S
LAGUARDIA APRT PTSUNNY   81  71  71 CALM      29.99F
KENNEDY INTL   PTSUNNY   77  71  82 S9        30.01S
NEWARK/LIBERTY PTSUNNY   83  72  69 SW3       30.00S
BRNX BOT. GARD   N/A     81  70  69 W3        30.02R
TETERBORO      MOSUNNY   81  71  71 CALM      29.99S
$$

NYZ177-179-078>081-011500-
LONG ISLAND NEW YORK

CITY           SKY/WX    TMP DP  RH WIND       PRES   REMARKS
FARMINGDALE    PTSUNNY   76  73  91 S3        30.01S
ISLIP          PTSUNNY   77  71  82 SW7       29.99F
SHIRLEY        MOSUNNY   78  71  79 SW7       30.02S
WESTHAMPTON    PTSUNNY   78  71  79 SW8       30.02S
MONTAUK POINT    N/A     76  72  87 SW8       30.02R
$$

NYZ052-065-067-011500-
HUDSON VALLEY

CITY           SKY/WX    TMP DP  RH WIND       PRES   REMARKS
WHITE PLAINS   MOSUNNY   80  72  76 N3        30.01S
NEWBURGH       MOSUNNY   77  72  83 W6        30.02S
MONTGOMERY     SUNNY     78  71  79 S6        30.00S
POUGHKEEPSIE   PTSUNNY   79  71  76 CALM      29.99S
ALBANY         MOSUNNY   78  68  71 VRB3      29.99F
$$

NJZ001-105-106-008-010-013-015-019>022-104-011500-
NEW JERSEY

CITY           SKY/WX    TMP DP  RH WIND       PRES   REMARKS
NEWARK/LIBERTY PTSUNNY   83  72  69 SW3       30.00S
TETERBORO      MOSUNNY   81  71  71 CALM      29.99S
CALDWELL       SUNNY     80  69  69 CALM      30.00F
MORRISTOWN     PTSUNNY   81  72  74 CALM      30.01S
SOMERVILLE     PTSUNNY   79  73  82 SW3       29.99F
LINDEN         PTSUNNY   85  74  70 S6        30.02S HX  93
SUSSEX         PTSUNNY   78  71  79 CALM      30.01S
ANDOVER          N/A     77  71  82 VRB3      30.02F
TRENTON        CLOUDY    76  73  91 SW5       30.02R
MILLVILLE      CLOUDY    78  74  87 VRB3      30.03F
ATLANTIC CITY  PTSUNNY   78  73  84 SW7       30.03S
WRIGHTSTOWN    CLOUDY    75  73  94 SW2       30.00S
TOMS RIVER     CLOUDY    79  73  83 W6        30.02S
BELMAR         CLOUDY    73  70  88 SW6       30.02S
$$

PAZ047>061-062-071-011500-
EASTERN PENNSYLVANIA

CITY           SKY/WX    TMP DP  RH WIND       PRES   REMARKS
PHILADELPHIA   CLOUDY    76  73  91 SW5       30.03R FOG
ALLENTOWN      CLOUDY    78  70  76 CALM      30.02F
SCRANTON       PTSUNNY   76  69  79 W5        30.03S
$$

CTZ002-004>006-009-010-012-RIZ004-006-007-MAZ004-011-015-011500-
SOUTHERN NEW ENGLAND
 IN CT

CITY           SKY/WX    TMP DP  RH WIND       PRES   REMARKS
BRADLEY INTL   MOSUNNY   79  69  71 CALM      29.99R
HARTFORD       MOSUNNY   77  71  82 SE5       29.99S
DANBURY        MOSUNNY   77  70  79 CALM      30.02F
WTRBRY/OXFORD  MOSUNNY   75  70  83 CALM      30.04S
BRIDGEPORT     MOSUNNY   78  73  84 S9        30.00S
MERIDEN        CLOUDY    77  71  82 CALM      30.00S
NEW HAVEN      PTSUNNY   79  73  82 SW6       29.99F
CHESTER        FAIR      77  72  83 S5        30.01S
GROTON         PTSUNNY   76  73  91 SW7       29.99S FOG
WILLIMANTIC    PTSUNNY   76  70  82 CALM      30.00S

 IN RI

CITY           SKY/WX    TMP DP  RH WIND       PRES   REMARKS
PROVIDENCE     MOSUNNY   79  72  79 VRB3      29.99F
BLOCK ISLAND   CLOUDY    72  70  94 SW15      30.02R
WESTERLY       CLOUDY    75  72  90 SW6       30.01R

 IN MA

CITY           SKY/WX    TMP DP  RH WIND       PRES   REMARKS
BOSTON         MOSUNNY   81  69  67 W5        29.97F
WORCESTER      SUNNY     76  68  76 VRB6      30.02F
WESTFIELD      MOSUNNY   80  69  69 CALM      29.99F
PROVINCETOWN   CLOUDY    73  72  94 SW9       29.99S
NANTUCKET      CLOUDY    72  69  90 SW8       30.01S
$$

ANZ330-335-338-340-345-350-353-355-011500-
COASTAL MARINE OBSERVATIONS


STATION/POSITION TIME  SKY/WX   TEMP    WIND        PRES    VSBY  WAVE
                                AIR SEA DIR/SP/G                  HT/PER
                 (UTC)          (F)     (DEG/KT/KT) (MB)    (MI)  (FT/S)
NY HARB ENTRANCE NOT AVBL
4S FIRE IS       NOT AVBL
23SW MTP         1400                                 N/A           4/ 6
HUDSON CANYON    1400            74 73  220/  8/ 10 1016.7          4/ 6
EXECUTION ROCKS  1400            81 74  200/  6/  8   N/A
WESTERN LI SOUND 1400            76     220/  6/  6   N/A           0
CENTRAL LI SOUND 1300            72 73  220/  8/  8   N/A           1
EASTERN LI SOUND 1300            72 70  250/  2/  4   N/A
ROBBINS REEF     1400            75     160/  9/  9   N/A
$$


>>>>>>>>>>>>>>>>>>>>>>>>>>>> KEY <<<<<<<<<<<<<<<<<<<<<<<<<<<
>                                                          <
>     SKY/WX - SKY CONDITION/PRESENT WEATHER               <
>     TMP    - TEMPERATURE IN FAHRENHEIT                   <
>     DP     - DEWPOINT IN FAHRENHEIT                      <
>     RH     - RELATIVE HUMIDITY IN PERCENT                <
>     WIND   - DIRECTION AND SPEED IN MPH                  <
>     PRES   - MEAN SEA LEVEL PRESSURE IN INCHES OF HG     <
>     WCI    - WIND CHILL INDEX                            <
>     VSB    - VISIBILITY IN MILES                         <
>     HX     - HEAT INDEX                                  <
>     TC     - TEMPERATURE IN CELSIUS                      <
>     VRB    - VARIABLE WIND DIRECTION                     <
>                                                          <
>>>>>>>>>>>>>>>>>>>>>>>>>>>> KEY <<<<<<<<<<<<<<<<<<<<<<<<<<<




USA.gov is the U.S. government's official web portal to all federal, state and local government web resources and services.